View from above orbital plane
|
View from above satellite
|
Ground track
|
The orbit data is extracted from the following two-line orbital elements,
1 16720U 86034B 21058.75484334 .00000083 00000-0 71491-5 0 9999
2 16720 82.5517 61.2896 0019257 326.1175 206.8625 14.83423135858539
Epoch (UTC): | 27 February 2021 18:06:58 |
Eccentricity: | 0.0019257 |
inclination: | 82.5517° |
perigee height: | 605 km |
apogee height: | 632 km |
right ascension of ascending node: | 61.2896° |
argument of perigee: | 326.1175° |
revolutions per day: | 14.83423135 |
mean anomaly at epoch: | 206.8625° |
orbit number at epoch: | 85853 |
The dashed part of the orbit path shows where the satellite is in the earth's shadow,
|
|